Location: Marysville Observatory
(48.1092°N, 122.1645°W)
Time: 18:05:04
(UTC-07:00)

Amateur Radio Satellites - All Passes

Search period start: 25 July 2014 17:35
Search period end: 26 July 2014 17:35
Location: Marysville Observatory, 48.1092°N, 122.1645°W

Satellite Date Start Highest point End Downlink Frequencies (MHz)
Time Altitude Azimuth
Saudisat 1A 25 Jul 17:35:16 17:39:41 72° 235° (SW) 17:44:03 436.775 MHz
Hamsat 25 Jul 17:36:24 17:40:12 35° 68° (ENE) 17:44:03 145.90 MHz
Uosat F 25 Jul 17:37:59 17:41:56 23° 268° (W) 17:45:55 435.120 FM
JAS-2 25 Jul 17:54:58 18:02:35 59° 68° (ENE) 18:09:44 435.800 - 435.900 CW/SSB, 435.910 FM
SO-50 25 Jul 18:10:59 18:11:51 10° 356° (N) 18:12:43 436.795 FM
OPAL 25 Jul 18:11:26 18:16:15 47° 294° (WNW) 18:21:07 ?
AO-7 25 Jul 18:45:48 18:50:24 16° 275° (W) 18:55:01 29.400 - 29.500 MHz
KITSAT 1 25 Jul 18:47:01 18:50:26 13° 263° (W) 18:53:51 435.175 FM
UOSAT-12 25 Jul 18:48:30 18:51:21 16° 338° (NNW) 18:54:14 437.025 FM, 437.400 FM
STRAND 1 25 Jul 18:50:32 18:53:55 18° 90° (E) 18:57:17 ?
SO-67 25 Jul 18:58:51 19:02:06 39° 72° (ENE) 19:05:23 435.3500 MHz FM
RS-15 25 Jul 19:00:16 19:09:54 33° 355° (N) 19:19:36 29.354 - 29.394 USB, Beacon 29.352 USB
Hamsat 25 Jul 19:12:51 19:16:16 24° 267° (W) 19:19:44 145.90 MHz
HO-68 25 Jul 19:37:20 19:43:04 27° 53° (NE) 19:48:48 435.675 MHz FM
JAS-2 25 Jul 19:40:46 19:47:50 36° 266° (W) 19:54:35 435.800 - 435.900 CW/SSB, 435.910 FM
SO-50 25 Jul 19:51:45 19:54:26 15° 21° (NNE) 19:57:09 436.795 FM
Oscar 11 25 Jul 20:26:30 20:28:10 12° 57° (ENE) 20:29:50 145.825 FM, Beacon 2401.500 USB
STRAND 1 25 Jul 20:28:32 20:33:39 70° 288° (WNW) 20:38:43 ?
UOSAT-12 25 Jul 20:32:23 20:33:31 11° 3° (N) 20:34:39 437.025 FM, 437.400 FM
SO-67 25 Jul 20:33:17 20:35:23 15° 269° (W) 20:37:30 435.3500 MHz FM
UKube-1 25 Jul 21:10:19 21:14:37 58° 71° (ENE) 21:18:56 145.840 MHz, 145.915 MHz
RS-15 25 Jul 21:15:18 21:25:42 45° 29° (NNE) 21:36:18 29.354 - 29.394 USB, Beacon 29.352 USB
HO-68 25 Jul 21:22:56 21:30:07 78° 254° (WSW) 21:37:20 435.675 MHz FM
SO-50 25 Jul 21:31:37 21:36:10 45° 44° (NE) 21:40:46 436.795 FM
MaSat-1 25 Jul 21:58:14 22:01:37 25° 105° (ESE) 22:05:26 437.345 MHz
Oscar 11 25 Jul 21:59:23 22:03:41 89° 75° (ENE) 22:08:02 145.825 FM, Beacon 2401.500 USB
STRAND 1 25 Jul 22:09:51 22:11:56 13° 308° (NW) 22:14:01 ?
FUNcube-1 25 Jul 22:11:14 22:15:23 46° 71° (ENE) 22:19:29 145.950 - 145.970 MHz USB
UOSAT-12 25 Jul 22:12:11 22:15:33 19° 27° (NNE) 22:18:55 437.025 FM, 437.400 FM
UKube-1 25 Jul 22:48:24 22:51:12 17° 269° (W) 22:54:01 145.840 MHz, 145.915 MHz
SO-50 25 Jul 23:12:25 23:16:38 32° 243° (WSW) 23:20:53 436.795 FM
HO-68 25 Jul 23:14:47 23:18:58 16° 274° (W) 23:23:11 435.675 MHz FM
RS-15 25 Jul 23:28:07 23:39:08 80° 237° (WSW) 23:50:31 29.354 - 29.394 USB, Beacon 29.352 USB
AO-40 25 Jul 23:28:21 03:41:44 28° 188° (S) 08:26:27 Beacon 2401.320
MaSat-1 25 Jul 23:34:38 23:38:41 44° 308° (NW) 23:43:21 437.345 MHz
Oscar 11 25 Jul 23:39:48 23:40:32 10° 274° (W) 23:41:16 145.825 FM, Beacon 2401.500 USB
FUNcube-1 25 Jul 23:48:50 23:52:02 20° 268° (W) 23:55:12 145.950 - 145.970 MHz USB
UOSAT-12 25 Jul 23:51:49 23:56:34 69° 49° (NE) 00:01:15 437.025 FM, 437.400 FM
Lituanica SAT-1 26 Jul 00:46:57 00:48:58 65° 155° (SSE) 00:51:00 437.275 MHz beacon
Sapphire 26 Jul 00:58:23 01:01:53 18° 105° (ESE) 01:05:24 437.095 MHz 1200 baud AX-25 AFSK
MaSat-1 26 Jul 01:15:41 01:17:27 12° 332° (NNW) 01:19:17 437.345 MHz
Oscar 19 26 Jul 01:26:58 01:29:31 14° 87° (E) 01:32:04 437.125 CW, 437.150 USB
ISS 26 Jul 01:27:21 01:30:21 31° 144° (SE) 01:33:22 145.800 FM
PCSat 26 Jul 01:30:29 01:35:18 34° 112° (ESE) 01:40:09 145.825 MHz
UOSAT-12 26 Jul 01:32:53 01:36:15 20° 248° (WSW) 01:39:35 437.025 FM, 437.400 FM
RS-15 26 Jul 01:41:56 01:49:45 23° 259° (W) 01:57:48 29.354 - 29.394 USB, Beacon 29.352 USB
Oscar 16 26 Jul 01:53:33 01:57:44 24° 93° (E) 02:01:54 437.025 USB, Beacon 2401.1428
ITAMSAT 1 26 Jul 02:08:24 02:11:22 15° 88° (E) 02:14:20 435.822 SSB
AO-Echo 26 Jul 02:09:06 02:12:15 16° 88° (E) 02:15:20 ?
OPAL 26 Jul 02:16:04 02:18:08 13° 50° (NE) 02:20:13 ?
Lituanica SAT-1 26 Jul 02:19:39 02:21:31 29° 353° (N) 02:23:22 437.275 MHz beacon
AO-27 26 Jul 02:25:58 02:29:59 22° 92° (E) 02:33:58 436.795 MHz FM
Uribyol 2 26 Jul 02:27:52 02:32:00 24° 92° (E) 02:36:07 436.500 FM
Gurwin Techsat 1B 26 Jul 02:32:06 02:33:12 11° 84° (E) 02:34:18 435.225 FM
Sapphire 26 Jul 02:39:13 02:44:38 82° 305° (NW) 02:50:06 437.095 MHz 1200 baud AX-25 AFSK
Oscar 10/S400 26 Jul 02:44:44 03:30:38 52° 194° (SSW) 11:02:46 145.825 - 145.975 CW/USB, Beacon 145.810 USB
ISS 26 Jul 03:03:35 03:06:56 66° 343° (NNW) 03:10:17 145.800 FM
Oscar 19 26 Jul 03:04:23 03:09:35 89° 287° (WNW) 03:14:46 437.125 CW, 437.150 USB
JAS-1B 26 Jul 03:10:29 03:19:36 44° 93° (E) 03:27:36 435.800 - 435.900 CW/SSB
PCSat 26 Jul 03:13:23 03:18:36 47° 312° (NW) 03:23:51 145.825 MHz
Oscar 16 26 Jul 03:32:22 03:37:22 51° 291° (WNW) 03:42:21 437.025 USB, Beacon 2401.1428
ITAMSAT 1 26 Jul 03:46:19 03:51:32 81° 287° (WNW) 03:56:42 435.822 SSB
AO-Echo 26 Jul 03:46:29 03:51:40 75° 287° (WNW) 03:56:38 ?
TMSAT-1 26 Jul 03:46:44 03:51:37 36° 96° (E) 03:56:27 436.925 FM
OPAL 26 Jul 03:51:15 03:56:10 71° 70° (ENE) 04:01:07 ?
Lituanica SAT-1 26 Jul 03:52:17 03:54:12 36° 12° (NNE) 03:56:07 437.275 MHz beacon
Uosat F 26 Jul 04:04:09 04:06:04 12° 86° (E) 04:07:58 435.120 FM
AO-27 26 Jul 04:04:46 04:09:52 57° 290° (WNW) 04:14:55 436.795 MHz FM
Uribyol 2 26 Jul 04:06:46 04:11:48 53° 291° (WNW) 04:16:47 436.500 FM
Gurwin Techsat 1B 26 Jul 04:08:47 04:14:08 73° 103° (ESE) 04:19:25 435.225 FM
Sapphire 26 Jul 04:24:48 04:28:55 21° 327° (NNW) 04:33:02 437.095 MHz 1200 baud AX-25 AFSK
ISS 26 Jul 04:40:43 04:43:58 44° 3° (N) 04:47:13 145.800 FM
Oscar 19 26 Jul 04:45:13 04:48:13 16° 305° (NW) 04:51:14 437.125 CW, 437.150 USB
AO-7 26 Jul 04:45:33 04:52:56 33° 95° (E) 05:00:13 29.400 - 29.500 MHz
PCSat 26 Jul 05:00:17 05:03:25 15° 336° (NNW) 05:06:33 145.825 MHz
JAS-1B 26 Jul 05:00:54 05:10:21 58° 296° (WNW) 05:18:44 435.800 - 435.900 CW/SSB
Lituanica SAT-1 26 Jul 05:24:43 05:26:35 32° 211° (SSW) 05:28:26 437.275 MHz beacon
TMSAT-1 26 Jul 05:26:43 05:31:32 37° 295° (WNW) 05:36:20 436.925 FM
AO-Echo 26 Jul 05:27:09 05:29:31 13° 307° (NW) 05:31:52 ?
ITAMSAT 1 26 Jul 05:27:30 05:30:14 15° 306° (NW) 05:32:58 435.822 SSB
KITSAT 1 26 Jul 05:31:19 05:34:18 12° 97° (E) 05:37:17 435.175 FM
OPAL 26 Jul 05:32:27 05:35:35 17° 268° (W) 05:38:45 ?
Uosat F 26 Jul 05:40:34 05:45:38 85° 105° (ESE) 05:50:39 435.120 FM
AO-27 26 Jul 05:47:25 05:48:19 10° 310° (NW) 05:49:13 436.795 MHz FM
Gurwin Techsat 1B 26 Jul 05:49:47 05:53:34 20° 302° (WNW) 05:57:20 435.225 FM
STRAND 1 26 Jul 06:09:30 06:14:12 37° 65° (ENE) 06:18:55 ?
MaSat-1 26 Jul 06:12:13 06:16:39 26° 44° (NE) 06:21:02 437.345 MHz
Sapphire 26 Jul 06:13:39 06:14:33 10° 353° (N) 06:15:27 437.095 MHz 1200 baud AX-25 AFSK
ISS 26 Jul 06:17:32 06:20:55 86° 23° (NNE) 06:24:18 145.800 FM
AO-7 26 Jul 06:38:00 06:46:15 66° 296° (WNW) 06:54:26 29.400 - 29.500 MHz
JAS-2 26 Jul 06:47:05 06:52:37 33° 92° (E) 06:57:36 435.800 - 435.900 CW/SSB, 435.910 FM
JAS-1B 26 Jul 06:52:33 06:58:45 20° 319° (NW) 07:04:38 435.800 - 435.900 CW/SSB
Hamsat 26 Jul 06:53:59 06:58:06 45° 98° (E) 07:02:14 145.90 MHz
KITSAT 1 26 Jul 07:20:06 07:28:00 60° 117° (ESE) 07:35:55 435.175 FM
Uosat F 26 Jul 07:20:43 07:23:46 16° 304° (NW) 07:26:49 435.120 FM
Saudisat 1A 26 Jul 07:47:43 07:49:30 12° 109° (ESE) 07:51:17 436.775 MHz
STRAND 1 26 Jul 07:48:46 07:53:25 34° 264° (W) 07:58:06 ?
MaSat-1 26 Jul 07:49:12 07:54:32 70° 244° (WSW) 07:59:40 437.345 MHz
SO-67 26 Jul 07:52:19 07:55:25 29° 96° (E) 07:58:29 435.3500 MHz FM
ISS 26 Jul 07:54:44 07:57:19 21° 221° (SW) 07:59:54 145.800 FM
Sapphire 26 Jul 07:58:01 08:00:35 13° 20° (NNE) 08:03:08 437.095 MHz 1200 baud AX-25 AFSK
Hamsat 26 Jul 08:30:33 08:33:50 22° 296° (WNW) 08:37:06 145.90 MHz
PCSat 26 Jul 08:31:29 08:35:09 18° 29° (NNE) 08:38:49 145.825 MHz
JAS-2 26 Jul 08:31:57 08:37:57 45° 295° (WNW) 08:43:16 435.800 - 435.900 CW/SSB, 435.910 FM
AO-7 26 Jul 08:32:01 08:37:34 20° 318° (NW) 08:43:07 29.400 - 29.500 MHz
HO-68 26 Jul 08:48:20 08:52:37 17° 86° (E) 08:56:53 435.675 MHz FM
KITSAT 1 26 Jul 09:16:00 09:23:43 45° 320° (NW) 09:31:28 435.175 FM
Saudisat 1A 26 Jul 09:23:57 09:28:23 86° 127° (SE) 09:32:51 436.775 MHz
SO-67 26 Jul 09:25:41 09:28:21 21° 293° (WNW) 09:31:01 435.3500 MHz FM
MaSat-1 26 Jul 09:29:18 09:30:55 11° 263° (W) 09:32:31 437.345 MHz
Sapphire 26 Jul 09:40:38 09:45:40 36° 44° (NE) 09:50:39 437.095 MHz 1200 baud AX-25 AFSK
Oscar 11 26 Jul 09:45:11 09:47:10 13° 88° (E) 09:49:09 145.825 FM, Beacon 2401.500 USB
PCSat 26 Jul 10:14:17 10:19:42 62° 52° (NE) 10:25:04 145.825 MHz
UKube-1 26 Jul 10:31:08 10:35:29 66° 102° (ESE) 10:39:48 145.840 MHz, 145.915 MHz
HO-68 26 Jul 10:34:15 10:41:27 80° 106° (ESE) 10:48:36 435.675 MHz FM
Saudisat 1A 26 Jul 11:05:10 11:08:33 21° 328° (NNW) 11:11:57 436.775 MHz
KITSAT 1 26 Jul 11:15:14 11:21:26 23° 348° (NNW) 11:27:38 435.175 FM
Oscar 11 26 Jul 11:19:33 11:23:53 74° 286° (WNW) 11:28:12 145.825 FM, Beacon 2401.500 USB
Sapphire 26 Jul 11:24:03 11:29:14 47° 244° (WSW) 11:34:24 437.095 MHz 1200 baud AX-25 AFSK
FUNcube-1 26 Jul 11:32:55 11:37:03 60° 101° (E) 11:41:11 145.950 - 145.970 MHz USB
PCSat 26 Jul 11:58:23 12:02:43 25° 251° (WSW) 12:07:01 145.825 MHz
UKube-1 26 Jul 12:08:28 12:11:14 17° 301° (WNW) 12:13:58 145.840 MHz, 145.915 MHz
JAS-1B 26 Jul 12:11:56 12:17:29 18° 38° (NE) 12:23:11 435.800 - 435.900 CW/SSB
HO-68 26 Jul 12:22:49 12:28:29 26° 307° (NW) 12:34:07 435.675 MHz FM
Oscar 19 26 Jul 12:46:42 12:51:03 29° 63° (ENE) 12:55:26 437.125 CW, 437.150 USB
Oscar 11 26 Jul 12:58:41 12:59:18 10° 305° (NW) 12:59:54 145.825 FM, Beacon 2401.500 USB
FUNcube-1 26 Jul 13:10:27 13:13:02 16° 299° (WNW) 13:15:37 145.950 - 145.970 MHz USB
KITSAT 1 26 Jul 13:13:28 13:19:58 25° 18° (NNE) 13:26:25 435.175 FM
Oscar 16 26 Jul 13:13:52 13:18:47 50° 69° (ENE) 13:23:44 437.025 USB, Beacon 2401.1428
AO-Echo 26 Jul 13:24:39 13:29:18 32° 64° (ENE) 13:33:59 ?
ITAMSAT 1 26 Jul 13:29:17 13:33:56 34° 64° (ENE) 13:38:37 435.822 SSB
SO-50 26 Jul 13:30:31 13:34:35 35° 118° (ESE) 13:38:45 436.795 FM
TMSAT-1 26 Jul 13:34:30 13:37:12 14° 54° (NE) 13:39:54 436.925 FM
AO-27 26 Jul 13:47:19 13:52:19 48° 68° (ENE) 13:57:20 436.795 MHz FM
Uribyol 2 26 Jul 13:49:00 13:54:02 51° 69° (ENE) 13:59:03 436.500 FM
Gurwin Techsat 1B 26 Jul 13:55:01 13:59:21 26° 61° (ENE) 14:03:42 435.225 FM
RS-15 26 Jul 13:55:54 14:06:13 47° 112° (ESE) 14:16:22 29.354 - 29.394 USB, Beacon 29.352 USB
JAS-1B 26 Jul 13:57:03 14:05:38 51° 61° (ENE) 14:15:00 435.800 - 435.900 CW/SSB
AO-7 26 Jul 13:59:41 14:05:01 19° 40° (NE) 14:10:21 29.400 - 29.500 MHz
Oscar 19 26 Jul 14:25:22 14:30:14 44° 262° (W) 14:35:09 437.125 CW, 437.150 USB
Saudisat 1A 26 Jul 14:29:41 14:31:27 12° 17° (NNE) 14:33:12 436.775 MHz
Oscar 16 26 Jul 14:54:16 14:58:25 25° 267° (W) 15:02:36 437.025 USB, Beacon 2401.1428
AO-Echo 26 Jul 15:02:54 15:07:56 43° 263° (W) 15:13:00 ?
ITAMSAT 1 26 Jul 15:08:32 15:13:23 38° 263° (W) 15:18:15 435.822 SSB
KITSAT 1 26 Jul 15:09:19 15:17:18 56° 45° (NE) 15:25:12 435.175 FM
SO-50 26 Jul 15:10:55 15:15:08 38° 319° (NW) 15:19:28 436.795 FM
TMSAT-1 26 Jul 15:10:59 15:16:17 77° 73° (ENE) 15:21:36 436.925 FM
Uosat F 26 Jul 15:19:51 15:24:00 27° 62° (ENE) 15:28:10 435.120 FM
AO-27 26 Jul 15:27:42 15:32:04 27° 266° (W) 15:36:28 436.795 MHz FM
Uribyol 2 26 Jul 15:29:34 15:33:47 25° 267° (W) 15:38:01 436.500 FM
Gurwin Techsat 1B 26 Jul 15:33:50 15:39:01 53° 260° (W) 15:44:15 435.225 FM
UOSAT-12 26 Jul 15:45:59 15:50:29 56° 123° (ESE) 15:55:06 437.025 FM, 437.400 FM
JAS-1B 26 Jul 15:47:26 15:56:01 53° 264° (W) 16:05:37 435.800 - 435.900 CW/SSB
AO-7 26 Jul 15:48:04 15:56:14 62° 63° (ENE) 16:04:26 29.400 - 29.500 MHz
OPAL 26 Jul 15:59:13 16:01:34 13° 90° (E) 16:03:54 ?
RS-15 26 Jul 16:07:18 16:18:15 64° 317° (NW) 16:29:09 29.354 - 29.394 USB, Beacon 29.352 USB
Saudisat 1A 26 Jul 16:08:17 16:12:21 34° 40° (NE) 16:16:22 436.775 MHz
TMSAT-1 26 Jul 16:53:30 16:56:49 17° 272° (W) 17:00:10 436.925 FM
SO-50 26 Jul 16:54:42 16:56:59 14° 342° (NNW) 16:59:18 436.795 FM
Uosat F 26 Jul 16:57:40 17:02:33 48° 260° (W) 17:07:28 435.120 FM
JAS-2 26 Jul 17:01:46 17:08:09 30° 59° (ENE) 17:14:10 435.800 - 435.900 CW/SSB, 435.910 FM
KITSAT 1 26 Jul 17:05:03 17:12:34 45° 247° (WSW) 17:20:04 435.175 FM
